Back to catalog

STARLINK-2135

AliveCommunicationsVLEO
NORAD 47408·PAYLOAD·🇺🇸 United States

Launched Jan 20, 2021 from Cape Canaveral Space Force Station

Loading…

Next Passes (next 24 hours)

TLE

FreshSource: CelesTrak SupGP

Epoch: Sep 15, 2026, 01:49 UTC

1 47408C 21005BM  26258.07618056  .00015024  00000+0  44502-3 0  2584
2 47408  53.1592 235.4806 0003966  67.9970   1.0942 15.34295630    15

Track STARLINK-2135 in real time with AllMySat

Download on the App Store